Location: Newark
(47.5833°N, 8.1500°E)
Time: 01:57:27
(UTC+00:00)

Transit 2A - Pass Details

Date: 03 November 2020
Orbit: 594 x 964 km, 66.7° (Epoch: 25 November)

Event Time Altitude Azimuth Distance (km) Brightness Sun altitude
Rises 23:18:03 0° 216° (SW) 3,630 - -57.8°
Reaches altitude 10° 23:20:37 10° 218° (SW) 2,694 - -57.8°
Maximum altitude 23:27:00 80° 305° (NW) 974 - -57.7°
Drops below altitude 10° 23:33:13 10° 33° (NNE) 2,623 - -57.5°
Sets 23:35:41 0° 35° (NE) 3,528 - -57.5°
